Location: Newark
(51.3318°N, 0.0053°E)
Time: 03:07:46
(UTC+00:00)

ITUPSAT 1 - Pass Details

Date: 09 July 2022
Orbit: 701 x 711 km, 98.6° (Epoch: 09 August)

Event Time Altitude Azimuth Distance (km) Brightness Sun altitude
Rises 21:47:56 0° 7° (N) 3,117 ? -10.5°
Reaches altitude 10° 21:50:27 10° 356° (N) 2,195 ? -10.7°
Maximum altitude 21:54:29 27° 299° (WNW) 1,343 ? -11.0°
Drops below altitude 10° 21:58:29 10° 242° (WSW) 2,187 ? -11.3°
Sets 22:01:00 0° 231° (SW) 3,103 ? -11.5°
